Regional Weather Roundup
Issued by NWS

Home | Current Version | Previous Version | Graphics & Text | Print | Product List | Glossary On
Versions: 1 2 3 4 5 6 7 8 9 10 11 12 13 14 15 16 17 18 19 20 21 22 23 24 25 26 27 28 29 30 31 32 33 34 35 36 37 38 39 40 41 42 43 44 45 46 47 48 49 50
000
ASUS45 KABQ 261210
RWRNM
WEATHER ROUNDUP FOR NEW MEXICO
NATIONAL WEATHER SERVICE ALBUQUERQUE NM
600 AM MDT SAT JUL 26 2014

NOTE: "FAIR" MEANS FEW OR NO CLOUDS BELOW 12,000 FEET AGL WITH NO
       SIGNIFICANT WEATHER OR OBSTRUCTIONS TO VISION.

      THIS PRODUCT IS RELEASED AS TWO VERSIONS.  ONE VERSION NEAR
      THE TOP OF THE HOUR CONTAINING PRELIMINARY DATA FROM ALBUQUERQUE
      AND OTHER STATIONS.  A FINAL VERSION WITH ADDITIONAL DATA IS
      ISSUED ABOUT 10 MINUTES AFTER THE HOUR.

NMZ501-503-504-510>518-261300-
NORTHWEST PLATEAU/NORTHCENTRAL MOUNTAINS

CITY           SKY/WX    TMP DP  RH WIND       PRES   REMARKS
FARMINGTON     CLEAR     64  39  39 NE5       30.17R
6HR MIN TEMP:  64; 6HR MAX TEMP:  80;

LOS ALAMOS     CLEAR     69  43  38 NW3       30.31S
SANTA FE       CLEAR     64  48  56 N9        30.23R
6HR MIN TEMP:  64; 6HR MAX TEMP:  73;

TAOS           CLEAR     52  41  66 NE6       30.33R
ANGEL FIRE     FAIR      44  41  89 CALM      30.44R

$$
NMZ402-403-502-505>509-261300-
WESTCENTRAL MOUNTAINS/SOUTHWEST MOUNTAINS

CITY           SKY/WX    TMP DP  RH WIND       PRES   REMARKS
GALLUP         CLEAR     58  40  51 E5        30.27S
6HR MIN TEMP:  58; 6HR MAX TEMP:  76;

GRANTS         PTCLDY    60  46  60 W3        30.29R
SILVER CITY    CLEAR     70  50  49 NW15      30.19R

$$
NMZ407-409-411-412-261300-
SOUTHERN DESERTS

CITY           SKY/WX    TMP DP  RH WIND       PRES   REMARKS
LORDSBURG      FAIR      70  55  60 W6        30.12R
DEMING         CLEAR     71  56  58 S6        30.08S
6HR MIN TEMP:  71; 6HR MAX TEMP:  81;

LAS CRUCES     CLEAR     69  44  40 NW5       30.09R
HOLLOMAN AFB   CLEAR     71  42  35 E6        30.06R
ALAMOGORDO     CLEAR     72  41  33 NE7       30.08S
T OR C         CLEAR     77  47  34 W9        30.10R
6HR MIN TEMP:  76; 6HR MAX TEMP:  82;


$$
NMZ519>523-261300-
CENTRAL VALLEYS/CENTRAL HIGHLANDS

CITY           SKY/WX    TMP DP  RH WIND       PRES   REMARKS
ALBUQUERQUE    PTCLDY    72  43  35 SE5       30.16R
6HR MIN TEMP:  72; 6HR MAX TEMP:  82;

DOUBLE EAGLE   PTCLDY    64  45  48 CALM      30.20
MORIARTY ARPT  FAIR      53  45  74 NW6       30.24R
6HR MIN TEMP:  53; 6HR MAX TEMP:  67;

CLINES CORNERS CLEAR     64  38  38 SW7       30.27S
6HR MIN TEMP:  63; 6HR MAX TEMP:  73;

BELEN          FAIR      74  49  41 SW10      30.14S
6HR MIN TEMP:  73; 6HR MAX TEMP:  81;

SOCORRO        FAIR      70  40  33 SW5       30.13R
6HR MIN TEMP:  69; 6HR MAX TEMP:  78;


$$
NMZ524>526-539-540-261300-
SOUTHCENTRAL MOUNTAINS

CITY           SKY/WX    TMP DP  RH WIND       PRES   REMARKS
RUIDOSO        PTCLDY    66  41  39 W5        30.29R

$$
NMZ527>531-261300-
NORTHEAST HIGHLANDS/NORTHEAST PLAINS

CITY           SKY/WX    TMP DP  RH WIND       PRES   REMARKS
LAS VEGAS      CLEAR     63  46  54 N5        30.26S
6HR MIN TEMP:  61; 6HR MAX TEMP:  72; 6HR PCP: TRACE;

RATON          CLEAR     60  51  72 NE7       30.21R
6HR MIN TEMP:  59; 6HR MAX TEMP:  76;

CLAYTON        PTCLDY    70  46  42 W7        30.09S
6HR MIN TEMP:  70; 6HR MAX TEMP:  81;


$$
NMZ532>537-261300-
EASTCENTRAL PLAINS

CITY           SKY/WX    TMP DP  RH WIND       PRES   REMARKS
TUCUMCARI      PTCLDY    77  53  43 SW12G23   30.04R
6HR MIN TEMP:  77; 6HR MAX TEMP:  86;

CANNON AFB     PTCLDY    68  56  65 SW6       30.11R
6HR MIN TEMP:  67; 6HR MAX TEMP:  74;

CLOVIS AIRPORT NOT AVBL

$$
NMZ028-029-538-261300-
SOUTHEAST PLAINS

CITY           SKY/WX    TMP DP  RH WIND       PRES   REMARKS
ROSWELL        CLEAR     70  52  52 SE7       30.04R
6HR MIN TEMP:  70; 6HR MAX TEMP:  81;

ARTESIA        CLEAR     72  55  56 S6        30.05R
CARLSBAD       CLEAR     70  54  56 SW6       30.02S
6HR MIN TEMP:  70; 6HR MAX TEMP:  83;

HOBBS          CLEAR     72  45  37 SE6       30.08


$$



USA.gov is the U.S. government's official web portal to all federal, state and local government web resources and services.